Stations météo

réclame
Mon MeteoGroup
Nottingham/Watnall, Grande-Bretagne (3354): Température de l'air & dewpoint: 12.11.2018 04:00:00 - 18.11.2018 04:00:00 (GMT)Nottingham/Watnall, Grande-Bretagne (3354): Température de l'air -20cm & Température de l'air -100cm: 12.11.2018 04:00:00 - 18.11.2018 04:00:00 (GMT)Nottingham/Watnall, Grande-Bretagne (3354): Vitesse du vent & gusts: 12.11.2018 04:00:00 - 18.11.2018 04:00:00 (GMT)Nottingham/Watnall, Grande-Bretagne (3354): Direction du vent: 12.11.2018 04:00:00 - 18.11.2018 04:00:00 (GMT)Nottingham/Watnall, Grande-Bretagne (3354): reduced air pressure: 12.11.2018 04:00:00 - 18.11.2018 04:00:00 (GMT)Nottingham/Watnall, Grande-Bretagne (3354): visibility: 12.11.2018 04:00:00 - 18.11.2018 04:00:00 (GMT)Nottingham/Watnall, Grande-Bretagne (3354): Ensoleillement: 12.11.2018 04:00:00 - 18.11.2018 04:00:00 (GMT)Nottingham/Watnall, Grande-Bretagne (3354): Quantités de précipitations: 12.11.2018 04:00:00 - 18.11.2018 04:00:00 (GMT)
Date & Time tt [°C] td [°C] tt -20cm [°C] tt -100cm [°C] ff [km/h] ff [knt] fx [km/h] fx [knt] dd ppp [hPa] vv [km] sd [min] rr [mm]
18.11.2018 04:00:00 4,8 4,5 - - 18 10 - - NE 1030,7 3,6 0 -
18.11.2018 03:00:00 4,6 4,3 - - 15 8 - - ENE 1030,7 3,8 0 0,0
18.11.2018 02:00:00 4,8 4,5 - - 16 9 - - ENE 1030,7 4,0 0 0,0
18.11.2018 01:00:00 4,9 4,6 - - 15 8 - - ENE 1030,7 3,4 0 0,0
18.11.2018 00:00:00 5,1 4,6 - - 16 9 - - ENE 1030,8 3,7 - 0,0
17.11.2018 23:00:00 5,6 4,7 - - 18 10 - - ENE 1030,5 5 0 0,0
17.11.2018 22:00:00 5,9 4,9 - - 16 9 - - E 1030,7 6 0 0,0
17.11.2018 21:00:00 6,0 4,9 - - 18 10 - - ENE 1030,5 7 0 0,0
17.11.2018 20:00:00 6,1 4,9 - - 18 10 - - ENE 1030,1 7 0 0,0
17.11.2018 19:00:00 6,4 5,2 - - 21 11 - - ENE 1029,9 8 0 0,0
17.11.2018 18:00:00 6,9 5,3 - - 21 11 - - ENE 1029,3 10 0 0,0
17.11.2018 17:00:00 7,5 6,0 - - 18 10 - - ENE 1028,9 9 0 0,0
17.11.2018 16:00:00 8,3 6,3 - - 15 8 - - ENE 1029,0 8 30 0,0
17.11.2018 15:00:00 9,1 6,7 - - 15 8 - - E 1028,8 8 48 0,0
17.11.2018 14:00:00 9,1 6,6 - - 16 9 - - ENE 1029,0 7 12 0,0
17.11.2018 13:00:00 8,7 6,3 - - 22 12 - - E 1029,2 6 12 0,0
17.11.2018 12:00:00 9,1 6,6 - - 16 9 - - E 1029,0 5 24 0,0
17.11.2018 11:00:00 8,2 6,4 - - 18 10 - - E 1029,3 4,8 0 0,0
17.11.2018 10:00:00 8,0 6,6 - - 16 9 - - E 1029,4 4,1 0 0,0
17.11.2018 09:00:00 7,5 6,5 10,5 11,0 16 9 - - E 1029,0 3,9 0 0,0
17.11.2018 08:00:00 6,9 6,3 - - 15 8 - - E 1028,8 3,0 0 0,0
17.11.2018 07:00:00 6,8 6,7 - - 18 10 - - E 1028,5 2,2 0 0,2
17.11.2018 06:00:00 7,4 7,3 - - 18 10 - - E 1028,0 0,9 0 0,0
17.11.2018 05:00:00 7,7 7,6 - - 18 10 - - E 1027,9 1,2 0 0,0
17.11.2018 04:00:00 7,8 7,7 - - 15 8 - - E 1027,9 1,7 0 0,0
17.11.2018 03:00:00 7,7 7,6 - - 13 7 - - E 1028,1 1,9 0 0,0
17.11.2018 02:00:00 7,7 7,6 - - 15 8 - - E 1028,2 1,3 0 0,0
17.11.2018 01:00:00 7,5 7,3 - - 16 9 - - E 1028,0 1,4 0 0,2
17.11.2018 00:00:00 7,7 7,5 - - 16 9 - - E 1027,8 2,3 - 0,0
16.11.2018 23:00:00 8,1 7,9 - - 15 8 - - E 1027,5 1,8 0 0,0
16.11.2018 22:00:00 8,5 8,3 - - 16 9 - - E 1027,4 1,7 0 0,0
16.11.2018 21:00:00 9,0 8,7 - - 15 8 - - E 1026,9 2,0 0 0,0
16.11.2018 20:00:00 9,7 9,3 - - 16 9 - - E 1026,9 3,8 0 0,0
16.11.2018 19:00:00 10,1 9,7 - - 13 7 - - E 1026,7 4,4 0 0,0
16.11.2018 18:00:00 10,3 9,8 - - 11 6 - - E 1026,5 2,8 0 0,0
16.11.2018 17:00:00 10,6 9,9 - - 11 6 - - E 1026,2 2,9 0 0,0
16.11.2018 16:00:00 10,9 9,9 - - 11 6 - - E 1025,9 4,3 0 0,0
16.11.2018 15:00:00 11,2 10,0 - - 9 5 - - ESE 1025,9 5 0 0,0
16.11.2018 14:00:00 11,5 10,1 - - 11 6 - - ESE 1025,9 5 0 0,0
16.11.2018 13:00:00 11,8 10,3 - - 9 5 - - ESE 1025,8 6 0 0,0
16.11.2018 12:00:00 11,8 10,3 - - 9 5 - - SE 1025,8 5 0 0,0
16.11.2018 11:00:00 11,6 10,3 - - 9 5 - - SSE 1025,6 6 0 0,0
16.11.2018 10:00:00 11,0 10,5 - - 11 6 - - SSE 1025,6 3,2 0 0,0
16.11.2018 09:00:00 10,8 10,5 10,2 10,9 13 7 - - ESE 1025,5 1,4 0 0,0
16.11.2018 08:00:00 11,4 10,7 - - 8 4 - - SE 1025,3 2,3 0 0,0
16.11.2018 07:00:00 11,3 10,8 - - 5 3 - - SSE 1024,5 2,5 0 0,0
16.11.2018 06:00:00 11,4 10,8 - - 8 4 - - SSE 1023,8 2,4 0 0,0
16.11.2018 05:00:00 11,4 10,8 - - 8 4 - - SSE 1023,1 3,1 0 0,0
16.11.2018 04:00:00 11,5 11,0 - - 8 4 - - SSE 1023,0 3,2 0 0,0
16.11.2018 03:00:00 11,5 11,0 - - 8 4 - - SSE 1022,7 2,4 0 0,0
16.11.2018 02:00:00 11,6 10,9 - - 8 4 - - SSE 1022,5 2,4 0 0,0
16.11.2018 01:00:00 12,0 11,1 - - 8 4 - - S 1022,3 3,7 0 0,0
16.11.2018 00:00:00 12,2 11,2 - - 11 6 - - S 1022,0 3,0 - 0,0
15.11.2018 23:00:00 12,5 11,1 - - 13 7 - - S 1021,4 5 0 0,0
15.11.2018 22:00:00 12,8 11,3 - - 8 4 - - S 1021,0 5 0 0,0
15.11.2018 21:00:00 12,9 11,3 - - 9 5 - - S 1020,2 6 0 0,0
15.11.2018 20:00:00 12,9 11,1 - - 9 5 - - S 1020,0 6 0 0,0
15.11.2018 19:00:00 12,9 10,8 - - 9 5 - - S 1019,8 9 0 0,0
15.11.2018 18:00:00 12,5 10,3 - - 9 5 - - S 1019,6 10 0 0,0
15.11.2018 17:00:00 11,7 9,5 - - 11 6 - - S 1019,4 11 0 0,0
15.11.2018 16:00:00 11,9 8,7 - - 8 4 - - S 1019,2 13 24 0,0
15.11.2018 15:00:00 13,3 8,8 - - 8 4 - - S 1019,3 17 60 0,0
15.11.2018 14:00:00 13,3 8,6 - - 11 6 - - S 1019,2 15 60 0,0
15.11.2018 13:00:00 12,7 8,7 - - 13 7 - - S 1019,6 11 18 0,0
15.11.2018 12:00:00 11,6 8,5 - - 13 7 - - S 1019,8 11 0 0,0
15.11.2018 11:00:00 11,5 8,6 - - 13 7 - - S 1020,0 20 0 0,0
15.11.2018 10:00:00 11,2 8,3 - - 13 7 - - S 1020,2 19 0 0,0
15.11.2018 09:00:00 10,9 8,3 9,7 11,0 9 5 - - S 1020,3 16 0 0,0
15.11.2018 08:00:00 10,6 8,0 - - 11 6 - - SSW 1020,1 15 0 0,0
15.11.2018 07:00:00 10,6 7,7 - - 13 7 - - S 1019,9 20 0 0,0
15.11.2018 06:00:00 10,5 7,9 - - 13 7 - - SSW 1019,7 16 0 0,0
15.11.2018 05:00:00 10,1 7,7 - - 8 4 - - SSW 1019,6 18 0 0,0
15.11.2018 04:00:00 10,2 7,7 - - 15 8 - - SSW 1019,6 18 0 0,0
15.11.2018 03:00:00 10,0 7,9 - - 13 7 - - SSW 1019,6 18 0 0,0
15.11.2018 02:00:00 10,0 7,5 - - 13 7 - - SW 1019,6 30 0 0,0
15.11.2018 01:00:00 9,4 7,6 - - 9 5 - - SSW 1019,6 20 0 0,0
15.11.2018 00:00:00 8,9 7,4 - - 15 8 - - SSW 1019,8 16 - 0,0
14.11.2018 23:00:00 9,0 7,1 - - 13 7 - - SSW 1019,6 20 0 0,0
14.11.2018 22:00:00 9,8 7,4 - - 13 7 - - SSW 1019,7 23 0 0,0
14.11.2018 21:00:00 9,9 6,9 - - 11 6 - - SSW 1019,8 26 0 0,0
14.11.2018 20:00:00 10,2 7,0 - - 8 4 - - SSW 1019,7 30 0 0,0
14.11.2018 19:00:00 9,8 7,3 - - 11 6 - - S 1019,6 22 0 0,0
14.11.2018 18:00:00 10,3 7,5 - - 9 5 - - S 1019,4 19 0 0,0
14.11.2018 17:00:00 11,3 7,4 - - 11 6 - - SSW 1019,1 26 0 0,0
14.11.2018 16:00:00 12,1 7,4 - - 13 7 - - SSW 1019,0 30 0 0,0
14.11.2018 15:00:00 12,6 7,2 - - 15 8 - - SSW 1019,1 30 6 0,0
14.11.2018 14:00:00 13,2 7,5 - - 18 10 - - SSW 1018,7 25 18 0,0
14.11.2018 13:00:00 13,6 7,4 - - 22 12 - - SW 1018,8 40 18 0,0
14.11.2018 12:00:00 13,4 7,9 - - 22 12 - - SSW 1019,2 23 30 0,0
14.11.2018 11:00:00 12,9 8,3 - - 28 15 48 26 SW 1018,9 19 12 0,0
14.11.2018 10:00:00 12,2 8,7 - - 22 12 - - SSW 1019,2 30 6 0,0
14.11.2018 09:00:00 11,3 8,1 9,7 11,0 21 11 - - SSW 1019,0 20 0 0,0
14.11.2018 08:00:00 11,0 8,0 - - 16 9 - - SSW 1018,6 28 0 0,0
14.11.2018 07:00:00 11,0 7,9 - - 18 10 - - SSW 1018,4 19 0 0,0
14.11.2018 06:00:00 11,2 7,9 - - 21 11 - - SSW 1018,2 22 0 0,0
14.11.2018 05:00:00 10,8 8,1 - - 16 9 - - SSW 1018,1 20 0 0,0
14.11.2018 04:00:00 10,3 8,1 - - 16 9 - - SSW 1018,3 18 0 0,0
14.11.2018 03:00:00 10,2 8,1 - - 16 9 - - SSW 1019,2 15 0 0,0
14.11.2018 02:00:00 9,9 8,0 - - 16 9 - - S 1019,8 18 0 0,0
14.11.2018 01:00:00 10,0 8,1 - - 16 9 - - S 1020,6 19 0 0,0
14.11.2018 00:00:00 9,2 7,6 - - 15 8 - - SSW 1021,3 17 - 0,0
13.11.2018 23:00:00 9,4 7,1 - - 15 8 - - S 1021,5 20 0 0,0
13.11.2018 22:00:00 9,4 7,0 - - 13 7 - - SSW 1021,6 26 0 0,0
13.11.2018 21:00:00 9,1 6,6 - - 13 7 - - SSW 1021,7 16 0 0,0
13.11.2018 20:00:00 9,5 6,7 - - 15 8 - - SSW 1021,8 17 0 0,0
13.11.2018 19:00:00 9,5 6,8 - - 13 7 - - SSW 1021,9 17 0 0,0
13.11.2018 18:00:00 9,8 6,4 - - 11 6 - - S 1021,6 28 0 0,0
13.11.2018 17:00:00 10,3 5,7 - - 11 6 - - SSW 1021,5 23 0 0,0
13.11.2018 16:00:00 11,5 5,7 - - 18 10 - - SW 1020,7 30 24 0,0
13.11.2018 15:00:00 12,6 5,6 - - 18 10 - - WSW 1020,1 40 48 0,0
13.11.2018 14:00:00 12,5 5,6 - - 22 12 - - WSW 1019,7 28 12 0,0
13.11.2018 13:00:00 11,5 5,8 - - 22 12 - - WSW 1019,5 23 54 0,0
13.11.2018 12:00:00 11,6 6,3 - - 18 10 - - WSW 1018,7 22 60 0,0
13.11.2018 11:00:00 10,6 6,2 - - 22 12 - - WSW 1018,4 18 60 0,0
13.11.2018 10:00:00 9,6 6,1 - - 21 11 - - SW 1017,1 26 54 0,0
13.11.2018 09:00:00 8,5 5,6 9,5 11,0 16 9 - - SW 1016,3 21 48 0,0
13.11.2018 08:00:00 7,4 5,3 - - 9 5 - - SW 1015,2 21 0 0,0
13.11.2018 07:00:00 7,3 5,1 - - 15 8 - - SW 1013,8 27 0 0,0
13.11.2018 06:00:00 7,3 5,1 - - 15 8 - - SW 1012,8 26 0 0,0
13.11.2018 05:00:00 7,2 5,2 - - 16 9 - - SW 1011,4 30 0 0,0
13.11.2018 04:00:00 7,2 5,3 - - 16 9 - - SW 1010,3 30 0 0,0
13.11.2018 03:00:00 7,3 5,0 - - 21 11 - - SW 1009,6 45 0 0,0
13.11.2018 02:00:00 7,3 4,9 - - 16 9 - - SW 1009,2 40 0 0,0
13.11.2018 01:00:00 7,7 5,2 - - 16 9 - - SW 1008,5 30 0 0,0
13.11.2018 00:00:00 8,3 5,7 - - 15 8 - - SSW 1008,1 30 - 0,0
12.11.2018 23:00:00 8,8 6,2 - - 16 9 - - SSW 1008,1 22 0 0,0
12.11.2018 22:00:00 8,6 6,2 - - 15 8 - - SSW 1007,5 20 0 0,0
12.11.2018 21:00:00 9,1 6,3 - - 21 11 - - SSW 1007,5 28 0 0,0
12.11.2018 20:00:00 9,1 5,9 - - 16 9 - - SSW 1007,5 30 0 0,0
12.11.2018 19:00:00 9,4 6,4 - - 18 10 - - SSW 1007,6 27 0 0,0
12.11.2018 18:00:00 10,3 5,2 - - 18 10 - - SSW 1007,5 45 0 0,0
12.11.2018 17:00:00 11,1 5,8 - - 18 10 - - SSW 1007,0 40 0 0,0
12.11.2018 16:00:00 11,9 5,8 - - 21 11 - - SSW 1006,5 23 30 0,0
12.11.2018 15:00:00 13,0 5,9 - - 18 10 - - SSW 1006,0 30 60 0,0
12.11.2018 14:00:00 13,2 7,2 - - 21 11 - - SSW 1005,9 35 42 0,0
12.11.2018 13:00:00 12,4 7,4 - - 18 10 - - SSW 1006,0 18 12 0,0
12.11.2018 12:00:00 12,3 7,6 - - 18 10 - - SSW 1006,4 19 60 0,0
12.11.2018 11:00:00 11,8 8,0 - - 16 9 - - SSW 1006,6 20 60 0,0
12.11.2018 10:00:00 10,4 7,9 - - 11 6 - - S 1006,7 15 60 0,0
12.11.2018 09:00:00 8,7 7,4 9,7 11,2 11 6 - - S 1006,7 20 48 0,0
12.11.2018 08:00:00 6,9 6,3 - - 9 5 - - S 1006,0 16 0 0,2
12.11.2018 07:00:00 6,7 6,2 - - 9 5 - - S 1005,6 13 0 0,0
12.11.2018 06:00:00 6,8 6,2 - - 11 6 - - S 1005,3 11 0 0,0
12.11.2018 05:00:00 7,0 6,2 - - 8 4 - - S 1005,1 12 0 0,0
12.11.2018 04:00:00 7,5 6,6 - - 13 7 - - S 1004,7 11 0 0,0

tt = Température de l'air
td = dewpoint
tt -20cm = Température de l'air -20cm
tt -100cm = Température de l'air -100cm
ff = Vitesse du vent
fx = gusts
dd = Direction du vent
ppp = reduced air pressure
vv = visibility
sd = Ensoleillement
rr = Quantités de précipitations

stations d'obs. à proximité